Вернуться в каталог

STARLINK-36953

АктивенСвязьVLEO
NORAD 68010·PAYLOAD·🇺🇸 United States

Запущен Feb 27, 2026 с Vandenberg Space Force Base

Loading…

Ближайшие Пролёты (ближайшие 24 часа)

TLE

СвежийSource: CelesTrak SupGP

Эпоха: Sep 14, 2026, 22:59 UTC

1 68010C 26039AA  26257.95812500  .00051578  00000+0  18683-2 0  2577
2 68010  43.0042  59.8530 0001515 275.5013  10.4924 15.27550259    17

Отслеживайте STARLINK-36953 в реальном времени с AllMySat

Download on the App Store